Location: *
(43.0833°N, 13.0500°E)
Time: 01:10:50
(UTC+00:00)

COSMO-SKYMED 1 - Pass Details

Date: 15 November 2019
Orbit: 621 x 623 km, 97.9° (Epoch: 06 December)

Event Time Altitude Azimuth Distance (km) Brightness Sun altitude
Rises 16:20:48 0° 26° (NNE) 2,911 5.6 -7.0°
Reaches altitude 10° 16:23:25 10° 42° (NE) 1,999 4.6 -7.5°
Maximum altitude 16:26:50 22° 94° (E) 1,353 3.8 -8.0°
Drops below altitude 10° 16:30:14 10° 146° (SE) 1,985 5.0 -8.6°
Sets 16:32:49 0° 161° (SSE) 2,886 6.0 -9.1°
